[[{"header":{"parameterUnit":"m.s-1","parameterCategory":1,"la1":30.2991,"la2":30.254,"lo1":-89.0895,"lo2":-89.0444,"dx":0.0017,"dy":0.0017,"nx":28,"ny":28,"refTime":"2022-11-07T03:00:00:Z","depth":0,"parameterNumber":2,"parameterNumberName":"U-component_of_WINDS"},"data":[0,0,0,0,0,0,0,0,0,0,0,0,0,0,0,0,0,0,0,0,0,0,0,0,0,0,0,0,0,0,0,0,0,0,0,0,0,0,0,0,0,0,0,0,0,0,0,0,0,0,0,0,0,0,0,0,0,0,-1.0866,-1.0866,0,-1.0821,-1.082,-1.082,-1.0757,-1.0756,-1.0755,-1.0754,-1.0709,-1.0709,-1.0709,0,0,0,0,0,0,0,0,0,0,0,0,0,-1.0901,-1.09,-1.0866,-1.0866,-1.0865,-1.0821,-1.082,-1.0819,-1.0758,-1.0756,-1.0755,-1.0754,-1.0709,-1.0709,-1.0709,0,0,0,0,0,0,0,0,0,0,0,0,0,-1.0873,-1.09,-1.0866,-1.0829,-1.0825,-1.0821,-1.082,-1.0819,-1.0758,-1.0756,-1.0755,-1.0753,-1.0709,-1.0709,-1.0709,-1.0738,0,0,-1.0708,-1.0708,0,0,0,0,0,0,0,0,-1.0875,-1.0872,-1.0835,-1.0831,-1.0827,-1.0793,-1.0816,-1.0792,-1.0758,-1.0783,-1.0754,-1.0752,-1.0739,-1.0736,-1.0731,-1.0736,-1.0734,-1.0708,-1.0708,-1.0707,-1.0707,0,0,0,0,0,0,0,-1.0877,-1.0874,-1.0848,-1.0834,-1.083,-1.0815,-1.0809,-1.0811,-1.077,-1.0781,-1.0776,-1.0772,-1.0736,-1.0731,-1.0729,-1.0734,-1.0708,-1.0708,-1.0707,-1.0707,-1.0761,-1.0762,0,0,0,0,0,0,-1.0884,-1.0876,-1.085,-1.0847,-1.0848,-1.0815,-1.0809,-1.0806,-1.077,-1.0763,-1.0773,-1.0769,-1.0733,-1.073,-1.0727,-1.0759,-1.0707,-1.0707,-1.0707,-1.0759,-1.0761,-1.0763,0,0,0,0,0,0,-1.0885,-1.0883,-1.0851,-1.086,-1.0855,-1.0816,-1.0813,-1.0805,-1.08,-1.0764,-1.0757,-1.0775,-1.0731,-1.0728,-1.0736,-1.0757,-1.0707,-1.0707,-1.0757,-1.076,-1.0762,-1.0823,0,0,0,0,0,0,-1.0887,-1.0883,-1.0894,-1.0861,-1.0855,-1.086,-1.0814,-1.0806,-1.08,-1.0794,-1.0764,-1.0758,-1.073,-1.0737,-1.0736,-1.0755,-1.0706,-1.0755,-1.0758,-1.0761,-1.0819,-1.0828,-1.0835,0,0,0,0,0,-1.0888,-1.0913,-1.0895,-1.0892,-1.0867,-1.0862,-1.0858,-1.0825,-1.0802,-1.0812,-1.0789,-1.0759,-1.0755,-1.0738,-1.0736,-1.0756,-1.0753,-1.0757,-1.0761,-1.0816,-1.0826,-1.0835,0,0,0,0,0,0,-1.0951,-1.0908,-1.0887,-1.0903,-1.0886,-1.0851,-1.0863,-1.0837,-1.0827,-1.0822,-1.0781,-1.0775,-1.0788,-1.0773,-1.0755,-1.0783,-1.075,-1.0753,-1.0792,-1.0802,-1.0809,-1.0813,-1.0706,0,0,0,0,0,-1.0966,-1.0965,-1.0928,-1.0946,-1.0938,-1.0903,-1.0899,-1.0874,-1.0856,-1.0849,-1.0826,-1.081,-1.0805,-1.0802,-1.0796,-1.0817,-1.081,-1.083,-1.0838,-1.0844,-1.0848,-1.0858,-1.0866,-1.0775,-1.0775,-1.0774,0,0,-1.0998,-1.0975,-1.0977,-1.0958,-1.0942,-1.0942,-1.0897,-1.0899,-1.0899,-1.0849,-1.0855,-1.0838,-1.0817,-1.0832,-1.0837,-1.082,-1.0871,-1.0849,-1.0854,-1.0854,-1.0862,-1.0871,-1.0879,-1.0777,-1.0777,-1.0776,0,0,-1.1057,-1.104,-1.1052,-1.1037,-1.1013,-1.0989,-1.0992,-1.0961,-1.0948,-1.0953,-1.0916,-1.0915,-1.0907,-1.0894,-1.0886,-1.0939,-1.0912,-1.0938,-1.0979,-1.0989,-1.0996,-1.1003,-1.1022,-1.1029,-1.0942,-1.0942,-1.0942,0,-1.11,-1.1099,-1.1062,-1.1066,-1.1058,-1.1013,-1.1025,-1.1012,-1.0989,-1.0985,-1.0965,-1.0954,-1.0937,-1.0948,-1.0961,-1.0956,-1.0958,-1.0942,-1.0998,-1.1004,-1.1009,-1.1027,-1.1034,-1.0946,-1.0945,-1.0945,-1.0945,0,-1.1153,-1.1152,-1.1165,-1.1142,-1.1136,-1.1144,-1.1109,-1.1107,-1.1083,-1.1061,-1.1067,-1.1045,-1.1033,-1.1033,-1.101,-1.1041,-1.1031,-1.1006,-1.0971,-1.1022,-1.1038,-1.1045,-1.095,-1.0949,-1.0948,-1.0947,0,0,-1.125,-1.1206,-1.1212,-1.1201,-1.1172,-1.117,-1.1177,-1.1164,-1.1164,-1.1149,-1.1153,-1.1147,-1.1123,-1.1114,-1.1089,-1.1098,-1.1142,-1.1072,-1.107,-1.1086,-1.1175,-1.1194,-1.1203,-1.1123,-1.1124,-1.1125,-1.1176,0,-1.1303,-1.1311,-1.1278,-1.1294,-1.1293,-1.125,-1.1255,-1.1238,-1.1218,-1.1214,-1.1192,-1.1188,-1.1157,-1.1151,-1.1158,-1.1135,-1.1159,-1.1131,-1.1127,-1.1128,-1.1134,-1.1211,-1.1232,-1.1281,-1.1182,-1.1183,-1.1184,0,-1.1367,-1.1354,-1.1371,-1.134,-1.1338,-1.1344,-1.133,-1.1327,-1.1306,-1.1291,-1.1281,-1.1252,-1.1256,-1.1223,-1.1229,-1.121,-1.1207,-1.1195,-1.1196,-1.1195,-1.1159,-1.1212,-1.1296,-1.1303,-1.1194,-1.1193,-1.1192,0,-1.1436,-1.1424,-1.1432,-1.1424,-1.1388,-1.1393,-1.1379,-1.1357,-1.1351,-1.1339,-1.1335,-1.1324,-1.1318,-1.131,-1.1279,-1.1258,-1.1288,-1.1253,-1.1276,-1.1276,-1.1284,-1.1284,-1.1369,-1.1282,-1.1282,-1.1282,-1.1281,0,-1.1499,-1.1511,-1.1462,-1.1467,-1.1479,-1.1441,-1.1454,-1.1435,-1.1416,-1.1417,-1.1379,-1.1381,-1.1339,-1.1336,-1.1312,-1.132,-1.1318,-1.1306,-1.1299,-1.1309,-1.1311,-1.1306,-1.1302,-1.1283,-1.1283,-1.1283,-1.1282,0,-1.1579,-1.1547,-1.1553,-1.1518,-1.151,-1.1521,-1.1491,-1.1495,-1.1472,-1.1473,-1.1472,-1.1436,-1.1431,-1.1398,-1.1386,-1.1369,-1.1387,-1.1373,-1.1394,-1.1389,-1.1414,-1.1412,-1.1499,-1.1509,-1.1416,-1.1417,-1.1417,0,-1.1621,-1.1629,-1.1596,-1.1593,-1.158,-1.1577,-1.1571,-1.1534,-1.1529,-1.1506,-1.1513,-1.1504,-1.1495,-1.1489,-1.1462,-1.1453,-1.1439,-1.147,-1.1437,-1.1447,-1.1439,-1.1439,-1.144,-1.1477,-1.1478,-1.1479,-1.148,0,-1.17,-1.1684,-1.1676,-1.1663,-1.1657,-1.1645,-1.1631,-1.1632,-1.159,-1.1587,-1.1581,-1.1574,-1.1561,-1.1553,-1.1538,-1.1524,-1.1495,-1.149,-1.1495,-1.1506,-1.1517,-1.1511,-1.1413,-1.1489,-1.1488,-1.1487,-1.1487,-1.1486,-1.1762,-1.1767,-1.1744,-1.1737,-1.1723,-1.171,-1.1712,-1.1689,-1.1683,-1.1668,-1.1647,-1.1644,-1.1623,-1.1601,-1.1588,-1.1586,-1.1569,-1.1576,-1.1578,-1.158,-1.1586,-1.1517,-1.1583,-1.1583,-1.1582,-1.1582,-1.1582,0,-1.1839,-1.1822,-1.1816,-1.1797,-1.1792,-1.1764,-1.1747,-1.1745,-1.1742,-1.1725,-1.1717,-1.171,-1.1702,-1.1674,-1.1664,-1.1667,-1.1653,-1.1665,-1.1665,-1.1662,-1.1601,-1.1598,-1.1676,-1.1676,-1.1676,-1.1676,-1.1676,-1.1676,-1.1879,-1.1886,-1.1867,-1.1866,-1.1848,-1.1845,-1.1837,-1.1826,-1.1811,-1.1805,-1.1798,-1.178,-1.1758,-1.1746,-1.1737,-1.173,-1.1728,-1.1744,-1.1732,-1.1675,-1.1666,-1.1658,-1.1655,-1.1744,-1.1744,-1.1793,-1.1793,-1.1794]},{"header":{"parameterUnit":"m.s-1","parameterCategory":1,"la1":30.2991,"la2":30.254,"lo1":-89.0895,"lo2":-89.0444,"dx":0.0017,"dy":0.0017,"nx":28,"ny":28,"refTime":"2022-11-07T03:00:00:Z","depth":0,"parameterNumber":3,"parameterNumberName":"V-component_of_WINDS"},"data":[0,0,0,0,0,0,0,0,0,0,0,0,0,0,0,0,0,0,0,0,0,0,0,0,0,0,0,0,0,0,0,0,0,0,0,0,0,0,0,0,0,0,0,0,0,0,0,0,0,0,0,0,0,0,0,0,0,0,-0.2893,-0.2893,0,-0.2941,-0.2942,-0.2942,-0.2955,-0.2954,-0.2954,-0.2954,-0.3006,-0.3008,-0.3009,0,0,0,0,0,0,0,0,0,0,0,0,0,-0.2812,-0.2814,-0.2893,-0.2893,-0.2894,-0.2941,-0.2942,-0.2943,-0.2955,-0.2954,-0.2954,-0.2953,-0.3006,-0.3008,-0.301,0,0,0,0,0,0,0,0,0,0,0,0,0,-0.2853,-0.2814,-0.2893,-0.2906,-0.2907,-0.2941,-0.2942,-0.2943,-0.2955,-0.2954,-0.2954,-0.2953,-0.3005,-0.3007,-0.301,-0.3035,0,0,-0.3018,-0.3019,0,0,0,0,0,0,0,0,-0.285,-0.2856,-0.2903,-0.2905,-0.2907,-0.2941,-0.2933,-0.2974,-0.2955,-0.2937,-0.2954,-0.2953,-0.2985,-0.2989,-0.2999,-0.3038,-0.304,-0.3018,-0.3019,-0.302,-0.3021,0,0,0,0,0,0,0,-0.2848,-0.2854,-0.2912,-0.2904,-0.2906,-0.291,-0.2915,-0.2941,-0.2963,-0.2938,-0.2939,-0.2945,-0.2986,-0.2997,-0.3001,-0.3041,-0.3018,-0.302,-0.3022,-0.3023,-0.3101,-0.3101,0,0,0,0,0,0,-0.2842,-0.2851,-0.291,-0.2913,-0.2877,-0.2911,-0.2917,-0.2931,-0.2963,-0.2967,-0.2945,-0.2945,-0.2993,-0.2998,-0.3003,-0.3034,-0.302,-0.3023,-0.3024,-0.31,-0.3101,-0.3102,0,0,0,0,0,0,-0.284,-0.2847,-0.2909,-0.2883,-0.2891,-0.2913,-0.2928,-0.2932,-0.2943,-0.2968,-0.2972,-0.2952,-0.2993,-0.2999,-0.3027,-0.3036,-0.3024,-0.3026,-0.31,-0.3101,-0.3101,-0.3096,0,0,0,0,0,0,-0.2838,-0.2847,-0.2856,-0.2883,-0.2892,-0.2931,-0.2929,-0.2933,-0.2947,-0.2947,-0.2976,-0.298,-0.2993,-0.3023,-0.3029,-0.3039,-0.3028,-0.3099,-0.31,-0.3101,-0.3096,-0.3097,-0.3098,0,0,0,0,0,-0.2835,-0.2854,-0.2857,-0.2864,-0.2904,-0.2931,-0.2937,-0.2951,-0.2948,-0.2957,-0.2973,-0.2979,-0.3034,-0.3025,-0.3033,-0.3043,-0.3098,-0.31,-0.3101,-0.3095,-0.3097,-0.3098,0,0,0,0,0,0,-0.2829,-0.2857,-0.2861,-0.2888,-0.2907,-0.2933,-0.2946,-0.2952,-0.2973,-0.2972,-0.2989,-0.2996,-0.3022,-0.3036,-0.3026,-0.3069,-0.3066,-0.3069,-0.3059,-0.3061,-0.3062,-0.3058,-0.303,0,0,0,0,0,-0.283,-0.2849,-0.2874,-0.2896,-0.2905,-0.2924,-0.2936,-0.2945,-0.2966,-0.2974,-0.2992,-0.3013,-0.3034,-0.3048,-0.307,-0.3098,-0.3104,-0.3109,-0.311,-0.311,-0.3113,-0.3128,-0.313,-0.3106,-0.3106,-0.3106,0,0,-0.2834,-0.2852,-0.2863,-0.2895,-0.291,-0.293,-0.2931,-0.2952,-0.2967,-0.2978,-0.3004,-0.3018,-0.3042,-0.3069,-0.3082,-0.3082,-0.3121,-0.3112,-0.3112,-0.3114,-0.3129,-0.3131,-0.3133,-0.3107,-0.3106,-0.3106,0,0,-0.2851,-0.2867,-0.2886,-0.2901,-0.2924,-0.2937,-0.2941,-0.2967,-0.2976,-0.3003,-0.3011,-0.3029,-0.3067,-0.3083,-0.3096,-0.3118,-0.3124,-0.3125,-0.313,-0.3145,-0.3146,-0.3148,-0.3156,-0.3158,-0.3127,-0.3127,-0.3127,0,-0.2853,-0.2882,-0.2896,-0.2916,-0.2929,-0.2939,-0.2959,-0.2973,-0.3003,-0.3012,-0.301,-0.3056,-0.3073,-0.3104,-0.3109,-0.312,-0.3126,-0.3122,-0.3145,-0.3147,-0.3149,-0.3156,-0.3159,-0.3127,-0.3127,-0.3127,-0.3127,0,-0.2883,-0.2904,-0.2917,-0.2943,-0.2958,-0.2978,-0.2995,-0.3009,-0.3016,-0.3028,-0.3055,-0.3076,-0.3101,-0.3109,-0.3117,-0.3141,-0.314,-0.3141,-0.3139,-0.3151,-0.3158,-0.3161,-0.3127,-0.3127,-0.3127,-0.3127,0,0,-0.2898,-0.2931,-0.2935,-0.2947,-0.2973,-0.2989,-0.301,-0.3033,-0.3044,-0.3064,-0.3082,-0.3112,-0.3114,-0.3129,-0.3139,-0.3151,-0.3166,-0.3151,-0.3152,-0.3153,-0.3194,-0.3192,-0.3195,-0.317,-0.3171,-0.3171,-0.3191,0,-0.2918,-0.2953,-0.2965,-0.2995,-0.3014,-0.3023,-0.3041,-0.3059,-0.3071,-0.3089,-0.3103,-0.3124,-0.3124,-0.3133,-0.3146,-0.3162,-0.3175,-0.3161,-0.3187,-0.3188,-0.318,-0.3199,-0.3197,-0.3215,-0.3194,-0.3195,-0.3195,0,-0.2946,-0.2964,-0.2996,-0.3018,-0.3026,-0.3042,-0.3064,-0.3081,-0.3102,-0.311,-0.3126,-0.3134,-0.3156,-0.3152,-0.3183,-0.3173,-0.3184,-0.3193,-0.3194,-0.3197,-0.3192,-0.3202,-0.3221,-0.3224,-0.32,-0.3199,-0.3199,0,-0.2952,-0.2986,-0.3008,-0.3018,-0.3045,-0.3056,-0.3068,-0.3088,-0.3101,-0.3121,-0.3129,-0.3152,-0.3164,-0.3181,-0.3196,-0.3191,-0.3225,-0.3222,-0.3232,-0.3232,-0.3239,-0.3238,-0.326,-0.3247,-0.3247,-0.3247,-0.3247,0,-0.2973,-0.2992,-0.3011,-0.3025,-0.3046,-0.306,-0.3081,-0.3094,-0.3111,-0.3128,-0.3138,-0.3153,-0.3172,-0.319,-0.3202,-0.3225,-0.3231,-0.3238,-0.3241,-0.3237,-0.3236,-0.3245,-0.3244,-0.3247,-0.3247,-0.3247,-0.3247,0,-0.2984,-0.2998,-0.3023,-0.3046,-0.3052,-0.3067,-0.3087,-0.3101,-0.3113,-0.3134,-0.314,-0.316,-0.3182,-0.3198,-0.3227,-0.3234,-0.3259,-0.3262,-0.3252,-0.3253,-0.3262,-0.3261,-0.329,-0.3295,-0.3279,-0.3279,-0.3279,0,-0.2996,-0.301,-0.3034,-0.3046,-0.3057,-0.3076,-0.3088,-0.3103,-0.3116,-0.314,-0.3151,-0.3173,-0.3192,-0.3226,-0.3244,-0.3266,-0.3269,-0.3278,-0.3273,-0.3268,-0.3269,-0.3268,-0.3269,-0.3279,-0.3279,-0.3279,-0.3279,0,-0.3016,-0.3022,-0.3039,-0.3059,-0.3074,-0.3091,-0.3108,-0.3117,-0.3134,-0.3149,-0.317,-0.3185,-0.3213,-0.3235,-0.3259,-0.3272,-0.3278,-0.328,-0.3284,-0.328,-0.3273,-0.3276,-0.3253,-0.328,-0.328,-0.328,-0.328,-0.328,-0.3027,-0.304,-0.3058,-0.3078,-0.3092,-0.3107,-0.3121,-0.3134,-0.3152,-0.3176,-0.3183,-0.3206,-0.3226,-0.3258,-0.3271,-0.3289,-0.3289,-0.3294,-0.3295,-0.3296,-0.3296,-0.327,-0.3293,-0.3293,-0.3293,-0.3293,-0.3293,0,-0.3047,-0.3059,-0.3076,-0.3099,-0.3114,-0.3118,-0.3137,-0.3149,-0.3168,-0.3186,-0.3203,-0.3228,-0.3249,-0.3268,-0.329,-0.3301,-0.3304,-0.3306,-0.3305,-0.3308,-0.3295,-0.3289,-0.3303,-0.3303,-0.3303,-0.3303,-0.3303,-0.3303,-0.3059,-0.308,-0.3088,-0.3116,-0.3129,-0.315,-0.316,-0.3174,-0.3188,-0.3215,-0.3232,-0.3243,-0.3261,-0.3285,-0.3304,-0.3309,-0.3317,-0.3318,-0.3323,-0.331,-0.3309,-0.3308,-0.3303,-0.3319,-0.3319,-0.3335,-0.3336,-0.3336]}]]